sat.trackr.live / text

‹ back to catalog

ZHUHAI-1 03E

NORAD 44539 · 2019-060F

PAYLOAD ACTIVE UNKNOWN

§ Identity

Operator
Country
PRC
Launch date
2019-09-19
Launch site
JSC
Launch vehicle
Mass (kg)
RCS (m²)

External: N2YO · Heavens-Above · Gunter

§ Orbital elements

Epoch: 2026-09-20T05:12:35.140032Z

Period
93.27 min
Inclination
97.5729°
Eccentricity
0.0006098
Mean motion
15.43862185 rev/d
Perigee alt
430.6 km
Apogee alt
438.9 km
Semi-major
6,812.9 km
B*
2.9446e-4
RAAN
56.7422°
Arg perigee
47.7022°
Mean anomaly
312.4742°
Rev number
39,041

§ Raw data

ZHUHAI-1 03E1 44539U 19060F   26263.21707338  .00013281  00000+0  29446-3 0  99932 44539  97.5729  56.7422 0006098  47.7022 312.4742 15.43862185390410

JSON: /api/v1/satellites/44539 · /tle

For live sub-satellite position, see the globe view (requires WebGL).

§ Visibility from observer

Set your observer location to see the next 7 days of passes ≥ 10°. The values pass through the URL so the page stays shareable.

No JS? Fill the form by hand. The geolocation button needs JavaScript.

§ Radio — SatNOGS DB

ModeDescriptionDownlinkUplink
FM S-band telemetry 2.207 GHz

1 transmitter · refreshed weekly from db.satnogs.org